FW9995 Weather Reports


time (UTC)temp
C
wind
direction
speed
KPH
gust
KPH
rain 1hr
cm
rain 24hr
cm
rain mn
cm
humidity
%
barometer
mb
20260509053533 21 0 0.0 8.0 0.00 0.28 0.00 81 1010.7
20260509053038 21 0 1.6 8.0 0.00 0.28 0.00 80 1010.7
20260509052530 21 360 3.2 8.0 0.00 0.28 0.00 80 1010.6
20260509052032 21 360 0.0 8.0 0.00 0.28 0.00 80 1010.9
20260509051538 21 0 0.0 8.0 0.00 0.28 0.00 80 1011.5
20260509051032 21 9 3.2 8.0 0.00 0.28 0.00 80 1011.6
20260509050531 21 327 1.6 6.4 0.00 0.28 0.00 80 1011.2
20260509050039 21 248 1.6 6.4 0.00 0.28 0.00 79 1010.6
20260509045529 21 0 1.6 6.4 0.00 0.28 0.28 79 1010.0
20260509045032 21 0 1.6 6.4 0.00 0.28 0.28 78 1009.9
20260509044542 21 0 0.0 6.4 0.00 0.28 0.28 78 1009.9
20260509044030 21 209 0.0 11.3 0.00 0.28 0.28 78 1009.8
20260509043533 21 208 3.2 11.3 0.00 0.28 0.28 77 1009.5
20260509043039 21 228 4.8 11.3 0.00 0.28 0.28 77 1009.5
20260509042533 22 195 0.0 9.7 0.00 0.28 0.28 77 1009.9
20260509042032 22 360 1.6 9.7 0.00 0.28 0.28 77 1009.9
20260509041538 22 360 1.6 12.9 0.00 0.28 0.28 76 1009.9
20260509041033 22 360 3.2 12.9 0.00 0.28 0.28 76 1009.8
20260509040532 22 360 4.8 8.0 0.00 0.28 0.28 76 1009.6
20260509040044 22 360 1.6 8.0 0.00 0.28 0.28 76 1009.9
20260509035534 22 360 1.6 8.0 0.00 0.28 0.28 76 1010.1
20260509035032 22 0 1.6 6.4 0.00 0.28 0.28 77 1010.0
20260509034540 22 360 0.0 4.8 0.00 0.28 0.28 76 1010.4
20260509034032 22 360 1.6 4.8 0.00 0.28 0.28 76 1010.9
20260509033530 22 360 0.0 3.2 0.00 0.28 0.28 76 1010.8
20260509033043 22 360 0.0 3.2 0.00 0.28 0.28 76 1010.5
20260509032530 22 0 0.0 4.8 0.00 0.28 0.28 76 1010.2
20260509032032 22 0 0.0 4.8 0.00 0.28 0.28 76 1010.1
20260509031554 22 360 0.0 4.8 0.00 0.28 0.28 76 1010.1
20260509031031 22 0 0.0 3.2 0.00 0.28 0.28 76 1010.0
20260509030532 22 360 0.0 4.8 0.00 0.28 0.28 76 1010.0
20260509030038 22 0 0.0 4.8 0.00 0.28 0.28 76 1010.1
20260509025529 22 360 0.0 9.7 0.00 0.28 0.28 76 1009.8
20260509025028 22 0 1.6 9.7 0.00 0.28 0.28 76 1009.6
20260509024538 22 360 0.0 8.0 0.00 0.28 0.28 76 1009.4
20260509024032 22 360 1.6 8.0 0.00 0.28 0.28 76 1009.3
20260509023532 22 360 3.2 12.9 0.00 0.28 0.28 76 1009.1
20260509023037 22 360 3.2 12.9 0.00 0.28 0.28 76 1009.0
20260509022532 22 360 3.2 9.7 0.00 0.28 0.28 76 1009.0
20260509022029 22 360 3.2 12.9 0.00 0.28 0.28 76 1008.9
20260509021542 22 360 3.2 14.5 0.00 0.28 0.28 76 1008.8
20260509021030 22 360 4.8 14.5 0.00 0.28 0.28 76 1008.8
20260509020527 22 360 1.6 9.7 0.00 0.28 0.28 76 1008.8
20260509020044 22 360 1.6 9.7 0.00 0.28 0.28 75 1008.8
20260509015531 22 0 1.6 9.7 0.00 0.28 0.28 75 1008.7
20260509015030 22 360 3.2 9.7 0.00 0.28 0.28 75 1008.8
20260509014542 22 360 3.2 8.0 0.00 0.28 0.28 75 1008.7
20260509014028 22 360 1.6 8.0 0.00 0.28 0.28 74 1008.6
20260509013530 22 360 1.6 8.0 0.00 0.28 0.28 74 1008.7
20260509013038 22 360 1.6 9.7 0.00 0.28 0.28 74 1008.8
20260509012529 22 360 1.6 9.7 0.00 0.28 0.28 73 1008.7
20260509012029 22 360 1.6 9.7 0.00 0.28 0.28 73 1008.7
20260509011537 22 0 1.6 8.0 0.00 0.28 0.28 73 1008.8
20260509011031 22 360 1.6 8.0 0.00 0.28 0.28 73 1008.8
20260509010528 22 0 1.6 12.9 0.00 0.28 0.28 72 1008.8
20260509010043 22 360 1.6 12.9 0.00 0.28 0.28 72 1008.7
20260509005530 22 360 3.2 19.3 0.00 0.28 0.28 72 1008.6
20260509005028 23 360 4.8 19.3 0.00 0.28 0.28 71 1008.5
20260509004538 23 360 4.8 19.3 0.00 0.28 0.28 71 1008.3
20260509004028 23 360 3.2 14.5 0.00 0.28 0.28 71 1008.2
20260509003530 23 360 3.2 16.1 0.00 0.28 0.28 70 1008.0
20260509003045 23 360 6.4 16.1 0.00 0.28 0.28 70 1007.9
20260509002528 23 0 1.6 8.0 0.00 0.28 0.28 70 1008.0
20260509002029 23 360 1.6 16.1 0.00 0.28 0.28 70 1008.1
20260509001539 23 360 3.2 16.1 0.00 0.28 0.28 70 1008.0
20260509001029 23 360 4.8 16.1 0.00 0.28 0.28 69 1008.0
20260509000529 23 360 4.8 16.1 0.00 0.28 0.28 69 1008.1
20260509000040 23 360 3.2 8.0 0.00 0.28 0.28 69 1008.3
20260508235531 23 360 1.6 8.0 0.00 0.28 0.28 69 1008.2
20260508235027 23 360 3.2 14.5 0.00 0.28 0.28 69 1008.5
20260508234538 23 360 4.8 14.5 0.00 0.28 0.28 69 1008.6
20260508234030 23 360 3.2 14.5 0.00 0.28 0.28 68 1008.6
20260508233528 23 188 4.8 14.5 0.00 0.28 0.28 68 1008.7
20260508233055 23 138 4.8 11.3 0.00 0.28 0.28 68 1008.6
20260508232528 23 176 3.2 11.3 0.00 0.28 0.28 68 1008.7
20260508232030 23 167 3.2 12.9 0.00 0.28 0.28 67 1008.9
20260508231540 23 196 4.8 16.1 0.00 0.28 0.28 67 1008.8
20260508231029 23 175 3.2 16.1 0.00 0.28 0.28 67 1008.8
20260508230529 23 0 3.2 16.1 0.00 0.28 0.28 67 1008.9
20260508230100 24 360 6.4 16.1 0.00 0.28 0.28 67 1008.9
20260508225531 24 360 6.4 16.1 0.00 0.28 0.28 67 1008.9
20260508225028 24 360 6.4 16.1 0.00 0.28 0.28 67 1008.8
20260508224546 24 360 6.4 16.1 0.00 0.28 0.28 67 1008.9
20260508224028 24 360 4.8 16.1 0.00 0.28 0.28 66 1008.9
20260508223530 24 360 4.8 19.3 0.00 0.28 0.28 65 1008.8
20260508223042 25 360 4.8 19.3 0.00 0.28 0.28 65 1008.8
20260508222527 25 360 6.4 19.3 0.00 0.28 0.28 65 1008.8
20260508222028 25 222 3.2 14.5 0.00 0.28 0.28 64 1008.8
20260508221542 25 360 4.8 14.5 0.00 0.28 0.28 64 1008.6
20260508221031 25 360 4.8 14.5 0.00 0.28 0.28 64 1008.5
20260508220529 25 360 3.2 17.7 0.00 0.28 0.28 64 1008.6
20260508220110 25 360 4.8 17.7 0.00 0.28 0.28 64 1008.6
20260508215528 25 360 4.8 14.5 0.00 0.28 0.28 64 1008.5
20260508215028 25 360 3.2 14.5 0.00 0.28 0.28 64 1008.5
20260508214538 25 360 4.8 17.7 0.00 0.28 0.28 63 1008.5
20260508214030 25 169 6.4 17.7 0.00 0.28 0.28 64 1008.6
20260508213528 25 360 6.4 17.7 0.00 0.28 0.28 63 1008.6
20260508213038 25 360 6.4 16.1 0.00 0.28 0.28 62 1008.6
20260508212528 25 159 3.2 16.1 0.00 0.28 0.28 62 1008.7
20260508212027 25 139 4.8 14.5 0.00 0.28 0.28 63 1008.7
20260508211546 25 360 1.6 14.5 0.00 0.28 0.28 65 1008.8
20260508211028 25 360 4.8 12.9 0.00 0.28 0.28 64 1008.8
20260508210528 24 360 4.8 14.5 0.00 0.28 0.28 65 1009.0
20260508210041 23 360 4.8 14.5 0.00 0.28 0.28 66 1009.3
20260508205531 23 360 3.2 16.1 0.00 0.28 0.28 67 1009.6
20260508205028 23 360 4.8 19.3 0.00 0.28 0.28 66 1009.8
20260508204543 23 360 4.8 19.3 0.00 0.28 0.28 66 1009.9
20260508204034 23 238 6.4 17.7 0.00 0.28 0.28 66 1010.1
20260508203533 23 360 6.4 16.1 0.00 0.28 0.28 65 1010.3
20260508203040 24 105 6.4 16.1 0.00 0.28 0.28 64 1010.4
20260508202532 24 360 6.4 16.1 0.00 0.28 0.28 64 1010.4
20260508202030 24 360 3.2 12.9 0.00 0.28 0.28 64 1010.4
20260508201543 24 195 4.8 14.5 0.00 0.28 0.28 64 1010.4
20260508201033 24 177 3.2 14.5 0.00 0.28 0.28 64 1010.4
20260508200533 25 166 4.8 12.9 0.00 0.28 0.28 63 1010.4
20260508200044 25 0 4.8 12.9 0.00 0.28 0.28 63 1010.4
20260508195532 25 145 3.2 12.9 0.00 0.28 0.28 63 1010.4
20260508195032 25 198 4.8 16.1 0.00 0.28 0.28 63 1010.6
20260508194539 25 115 6.4 16.1 0.00 0.28 0.28 62 1010.5
20260508194033 25 202 4.8 16.1 0.00 0.28 0.28 62 1010.6
20260508193532 25 163 4.8 16.1 0.00 0.28 0.28 62 1010.5
20260508193042 25 232 4.8 16.1 0.00 0.28 0.28 62 1010.5
20260508192532 25 193 4.8 16.1 0.00 0.28 0.28 61 1010.6
20260508192033 25 200 8.0 16.1 0.00 0.28 0.28 60 1010.7
20260508191539 25 207 6.4 12.9 0.00 0.28 0.28 60 1010.7
20260508191033 26 150 6.4 12.9 0.00 0.28 0.28 60 1010.8
20260508190534 26 209 6.4 14.5 0.00 0.28 0.28 58 1010.9
20260508190053 26 131 3.2 14.5 0.00 0.28 0.28 58 1010.9
20260508185534 26 205 4.8 14.5 0.00 0.28 0.28 57 1010.7
20260508185032 26 204 4.8 12.9 0.00 0.28 0.28 58 1010.7
20260508184546 26 207 3.2 11.3 0.00 0.28 0.28 56 1010.9
20260508184031 26 114 4.8 9.7 0.00 0.28 0.28 57 1011.0
20260508183531 26 234 3.2 11.3 0.00 0.28 0.28 58 1010.9
20260508183043 26 148 1.6 11.3 0.00 0.28 0.28 57 1011.0
20260508182533 26 236 3.2 12.9 0.00 0.28 0.28 58 1011.2
20260508182029 26 74 4.8 12.9 0.00 0.28 0.28 58 1011.4
20260508181605 25 0 1.6 12.9 0.00 0.28 0.28 58 1011.5
20260508181030 25 202 4.8 11.3 0.00 0.28 0.28 57 1011.5
20260508180535 25 159 3.2 11.3 0.00 0.28 0.28 58 1011.7
20260508180046 25 304 4.8 11.3 0.00 0.28 0.28 58 1011.8
20260508175532 25 355 4.8 11.3 0.00 0.28 0.28 57 1011.8
20260508175033 25 161 3.2 16.1 0.00 0.28 0.28 58 1011.8
20260508174554 25 101 3.2 16.1 0.00 0.28 0.28 61 1011.9
20260508174032 25 212 1.6 8.0 0.00 0.28 0.28 60 1011.8
20260508173533 24 142 3.2 9.7 0.00 0.28 0.28 60 1011.9
20260508173039 24 196 3.2 12.9 0.00 0.28 0.28 62 1011.9
20260508172529 24 187 4.8 14.5 0.00 0.28 0.28 61 1011.9
20260508172028 23 179 3.2 14.5 0.00 0.28 0.28 62 1012.1
20260508171542 23 185 4.8 11.3 0.00 0.28 0.28 62 1012.3
20260508171029 23 203 3.2 16.1 0.00 0.28 0.28 62 1012.3
20260508170530 23 121 6.4 16.1 0.00 0.28 0.28 62 1012.6
20260508170038 22 187 3.2 14.5 0.00 0.28 0.28 63 1012.5
20260508165528 22 154 8.0 14.5 0.00 0.28 0.28 63 1012.8
20260508165028 22 145 3.2 11.3 0.00 0.28 0.28 64 1013.0
20260508164540 22 163 3.2 9.7 0.00 0.28 0.28 65 1013.0
20260508164030 21 86 3.2 11.3 0.00 0.28 0.28 66 1013.1
20260508163528 21 174 3.2 11.3 0.00 0.28 0.28 65 1013.2
20260508163043 21 117 4.8 12.9 0.00 0.28 0.28 65 1013.4
20260508162528 21 130 3.2 12.9 0.00 0.28 0.28 66 1013.6
20260508162033 21 123 1.6 14.5 0.00 0.28 0.28 67 1013.5
20260508161538 20 198 3.2 14.5 0.00 0.28 0.28 67 1013.6
20260508161029 20 128 3.2 12.9 0.00 0.28 0.28 66 1013.7
20260508160529 20 198 3.2 11.3 0.00 0.28 0.28 67 1013.8
20260508160038 20 211 3.2 9.7 0.00 0.28 0.28 67 1013.9
20260508155532 20 178 3.2 11.3 0.00 0.28 0.28 67 1013.9
20260508155031 20 175 4.8 11.3 0.00 0.28 0.28 66 1013.8
20260508154540 20 0 1.6 12.9 0.00 0.28 0.28 68 1014.0
20260508154031 20 164 4.8 12.9 0.00 0.28 0.28 67 1014.1
20260508153531 20 159 4.8 12.9 0.00 0.28 0.28 68 1014.0
20260508153042 20 192 3.2 11.3 0.00 0.28 0.28 69 1014.1
20260508152528 20 96 4.8 11.3 0.00 0.28 0.28 68 1014.0
20260508152028 20 207 3.2 9.7 0.00 0.28 0.28 69 1014.1
20260508151542 20 175 3.2 9.7 0.00 0.28 0.28 69 1014.1
20260508151031 19 201 3.2 9.7 0.00 0.28 0.28 69 1014.2
20260508150527 19 105 1.6 9.7 0.00 0.28 0.28 70 1014.2
20260508150042 19 223 1.6 9.7 0.00 0.28 0.28 71 1014.2
20260508145528 19 118 3.2 9.7 0.00 0.28 0.28 71 1014.2
20260508145031 19 116 3.2 9.7 0.00 0.28 0.28 74 1014.3
20260508144538 18 0 1.6 8.0 0.00 0.28 0.28 75 1014.2
20260508144028 18 103 1.6 12.9 0.00 0.28 0.28 76 1014.1
20260508143529 18 174 1.6 14.5 0.00 0.28 0.28 76 1014.3
20260508143039 18 155 3.2 14.5 0.00 0.28 0.28 75 1014.4
20260508142530 18 162 4.8 14.5 0.00 0.28 0.28 77 1014.3
20260508142030 17 0 3.2 14.5 0.00 0.28 0.28 79 1014.5
20260508141539 17 140 1.6 8.0 0.00 0.28 0.28 81 1014.5
20260508141030 17 0 0.0 12.9 0.00 0.28 0.28 82 1014.5
20260508140531 17 0 0.0 14.5 0.00 0.28 0.28 82 1014.6
20260508140042 16 0 1.6 14.5 0.00 0.28 0.28 82 1014.6
20260508135530 16 194 1.6 14.5 0.00 0.28 0.28 84 1014.4
20260508135029 16 0 0.0 11.3 0.00 0.28 0.28 85 1014.4
20260508134553 16 0 1.6 11.3 0.00 0.28 0.28 85 1014.5
20260508134030 16 0 0.0 11.3 0.03 0.28 0.28 86 1014.5
20260508133531 16 146 3.2 12.9 0.08 0.28 0.28 87 1014.4
20260508133038 16 155 3.2 12.9 0.13 0.28 0.28 87 1014.4
20260508132532 16 117 0.0 8.0 0.13 0.28 0.28 88 1014.6
20260508132029 15 0 0.0 8.0 0.13 0.28 0.28 87 1014.5
20260508131538 15 0 0.0 6.4 0.13 0.28 0.28 87 1014.6
20260508131028 15 0 0.0 8.0 0.13 0.28 0.28 88 1014.5
20260508130531 15 0 0.0 8.0 0.13 0.28 0.28 88 1014.4
20260508130036 15 0 0.0 4.8 0.13 0.28 0.28 88 1014.4
20260508125528 15 192 0.0 1.6 0.13 0.28 0.28 88 1014.7
20260508125029 15 0 0.0 1.6 0.13 0.28 0.28 88 1015.0
20260508124538 15 0 0.0 1.6 0.13 0.28 0.28 87 1014.7
20260508124027 15 192 0.0 1.6 0.10 0.25 0.25 88 1014.6
20260508123528 15 0 0.0 1.6 0.05 0.20 0.20 88 1014.6
20260508123040 15 0 0.0 1.6 0.00 0.15 0.15 88 1015.1
20260508122532 15 0 0.0 1.6 0.00 0.15 0.15 88 1015.0
20260508122028 15 0 0.0 3.2 0.00 0.15 0.15 88 1014.6
20260508121543 15 0 0.0 6.4 0.00 0.15 0.15 88 1014.7
20260508121029 15 0 0.0 6.4 0.00 0.15 0.15 88 1014.6
20260508120528 15 207 1.6 6.4 0.00 0.15 0.15 88 1014.6
20260508120043 15 206 1.6 6.4 0.00 0.15 0.15 88 1014.5
20260508115531 15 148 0.0 3.2 0.00 0.15 0.15 88 1014.7
20260508115029 15 192 0.0 3.2 0.00 0.15 0.15 88 1014.9
20260508114547 15 0 0.0 3.2 0.00 0.15 0.15 88 1015.1
20260508114029 15 159 0.0 3.2 0.00 0.15 0.15 88 1014.5
20260508113530 15 172 0.0 3.2 0.00 0.15 0.15 88 1014.6
20260508113040 15 0 0.0 3.2 0.00 0.15 0.15 88 1014.7
20260508112531 15 0 0.0 1.6 0.00 0.15 0.15 88 1014.8
20260508112030 15 0 0.0 4.8 0.00 0.15 0.15 88 1014.6
20260508111544 15 0 0.0 4.8 0.00 0.15 0.15 88 1014.2
20260508111028 15 0 0.0 4.8 0.00 0.15 0.15 88 1014.1
20260508110528 16 14 0.0 4.8 0.00 0.15 0.15 88 1014.5
20260508110036 15 0 0.0 6.4 0.00 0.15 0.15 88 1014.7
20260508105528 15 0 1.6 6.4 0.00 0.15 0.15 88 1015.4
20260508105027 15 288 1.6 6.4 0.00 0.15 0.15 88 1015.3
20260508104542 15 360 0.0 4.8 0.00 0.15 0.15 88 1014.6
20260508104030 15 0 0.0 6.4 0.00 0.15 0.15 87 1014.8
20260508103531 15 0 1.6 6.4 0.00 0.15 0.15 87 1014.9
20260508103050 15 293 1.6 4.8 0.00 0.15 0.15 87 1014.7
20260508102530 15 0 0.0 3.2 0.00 0.15 0.15 87 1014.0
20260508102032 15 0 0.0 6.4 0.00 0.15 0.15 87 1013.9
20260508101537 16 0 1.6 6.4 0.00 0.15 0.15 87 1014.1
20260508101031 16 0 0.0 3.2 0.00 0.15 0.15 87 1013.9
20260508100528 16 0 0.0 3.2 0.00 0.15 0.15 87 1013.7
20260508100036 16 0 0.0 0.0 0.00 0.15 0.15 86 1013.6
20260508095530 16 0 0.0 0.0 0.03 0.15 0.15 86 1013.6
20260508095032 16 0 0.0 0.0 0.05 0.15 0.15 86 1013.6
20260508094604 16 0 0.0 0.0 0.08 0.15 0.15 86 1013.7
20260508094029 16 0 0.0 0.0 0.08 0.15 0.15 86 1013.7
20260508093531 16 0 0.0 0.0 0.08 0.15 0.15 86 1013.8
20260508093039 16 0 0.0 1.6 0.08 0.15 0.15 86 1013.9
20260508092531 16 0 0.0 3.2 0.10 0.15 0.15 86 1014.0
20260508092031 16 0 0.0 3.2 0.10 0.15 0.15 85 1014.0
20260508091541 16 0 0.0 1.6 0.10 0.15 0.15 85 1013.8
20260508091035 16 0 0.0 1.6 0.10 0.15 0.15 84 1014.1
20260508090528 16 0 0.0 3.2 0.13 0.15 0.15 84 1014.1
20260508090038 16 13 0.0 3.2 0.15 0.15 0.15 84 1014.1
20260508085527 16 13 0.0 3.2 0.13 0.13 0.13 84 1014.0
20260508085031 16 0 0.0 8.0 0.10 0.10 0.10 83 1014.4
20260508084541 16 0 0.0 8.0 0.08 0.08 0.08 83 1014.6
20260508084033 16 0 3.2 8.0 0.08 0.08 0.08 83 1014.6
20260508083530 16 0 0.0 9.7 0.08 0.08 0.08 82 1013.9
20260508083041 16 0 3.2 9.7 0.08 0.08 0.08 81 1013.5
20260508082528 16 80 0.0 4.8 0.05 0.05 0.05 81 1013.9
20260508082031 16 0 0.0 1.6 0.05 0.05 0.05 80 1014.4
20260508081558 16 0 0.0 3.2 0.05 0.05 0.05 79 1014.8
20260508081029 16 0 0.0 4.8 0.03 0.03 0.03 78 1014.8
20260508080528 16 0 0.0 4.8 0.03 0.03 0.03 77 1014.8
20260508080050 16 86 1.6 4.8 0.00 0.00 0.00 77 1014.6
20260508075533 16 0 0.0 4.8 0.00 0.00 0.00 77 1015.2
20260508075027 16 0 0.0 4.8 0.00 0.00 0.00 77 1015.8
20260508074539 16 0 0.0 0.0 0.00 0.00 0.00 77 1015.9
20260508074028 16 0 0.0 1.6 0.00 0.00 0.00 77 1015.4
20260508073531 16 0 0.0 1.6 0.00 0.00 0.00 77 1015.6
20260508073042 16 0 0.0 1.6 0.00 0.00 0.00 77 1015.0
20260508072528 16 0 0.0 1.6 0.00 0.00 0.00 76 1015.0
20260508072030 16 0 0.0 1.6 0.00 0.00 0.00 76 1014.8
20260508071544 16 0 0.0 0.0 0.00 0.00 0.00 76 1015.0
20260508071031 16 0 0.0 0.0 0.00 0.00 0.00 76 1015.0
20260508070533 16 0 0.0 0.0 0.00 0.00 0.00 76 1015.1
20260508070042 16 0 0.0 1.6 0.00 0.00 0.00 76 1015.2
20260508065533 16 0 0.0 1.6 0.00 0.00 0.00 76 1015.2
20260508065027 16 0 0.0 1.6 0.00 0.00 0.00 76 1015.1
20260508064539 16 0 0.0 0.0 0.00 0.00 0.00 76 1015.2
20260508064030 16 0 0.0 0.0 0.00 0.00 0.00 76 1015.5
20260508063531 16 0 0.0 0.0 0.00 0.00 0.00 76 1015.6
20260508063051 16 0 0.0 0.0 0.00 0.00 0.00 76 1015.6
20260508062530 16 0 0.0 0.0 0.00 0.00 0.00 76 1015.6
20260508062028 16 0 0.0 1.6 0.00 0.00 0.00 76 1015.5
20260508061543 16 0 0.0 1.6 0.00 0.00 0.00 76 1015.7
20260508061028 16 0 0.0 0.0 0.00 0.00 0.00 76 1015.7
20260508060528 16 0 0.0 1.6 0.00 0.00 0.00 76 1015.4
20260508060038 16 0 0.0 1.6 0.00 0.00 0.00 76 1015.4
20260508055529 16 0 0.0 0.0 0.00 0.00 0.00 75 1015.3
20260508055028 16 0 0.0 0.0 0.00 0.00 0.00 75 1015.6
20260508054543 16 0 0.0 0.0 0.00 0.00 0.00 75 1015.5
20260508054027 16 0 0.0 0.0 0.00 0.00 0.00 75 1015.5